Flag for Germany Weather past 2 weeks in Homburg (Saar), Saarland, Germany

50 °F


Feels Like: 43 °F
Forecast: 48 / 51 °F
Wind: 24 mph from Southwest

Location: Saarbruecken / Ensheim

Current Time: Nov 30, 2015 at 4:09:47 AM

Latest Report: Nov 30, 2015 at 3:20 AM

Visibility: N/A

Pressure: 30.12 "Hg

Humidity: 76%

Dew point: 43 °F

Location of Homburg (Saar)Location

Historic Weather in Homburg (Saar) — Graph


Homburg (Saar) temperature yesterday

Maximum temperature yesterday: 50 °F (at 8:50 PM)
Minimum temperature yesterday: 37 °F (at 12:20 AM)
Average temperature yesterday: 44 °F

Past Weeks' High & Low Weather Summary

High57 °F (Nov 18, 1:20 AM)100% (Nov 17, 9:20 PM)30.27 "Hg (Nov 17, 9:20 PM)
Low25 °F (Nov 27, 5:50 AM)67% (Nov 18, 7:20 AM)29.42 "Hg (Nov 21, 9:50 AM)
Average41 °F90%29.96 "Hg
* Reported Nov 15 3:20 AM — Nov 30 3:20 AM, Homburg (Saar), Weather by CustomWeather, © 2015

Note: Actual official high and low records may vary slightly from our data, if they occured in-between our weather recording intervals... More about our weather records


Homburg (Saar) weather history for previous 24 hours

Time TempWeatherWind HumidityBarometerVisibility
3:20 AM
Mon, Nov 30
50 °FOvercast.24 mph76%30.12 "HgN/A
2:50 AM50 °FOvercast.23 mph71%30.12 "HgN/A
2:20 AM50 °FOvercast.23 mph71%30.12 "HgN/A
1:20 AM50 °FPassing clouds.28 mph71%30.12 "HgN/A
12:50 AM50 °FPassing clouds.29 mph71%30.12 "HgN/A
11:50 PM
Sun, Nov 29
50 °FPassing clouds.25 mph71%30.12 "HgN/A
11:20 PM50 °FPassing clouds.22 mph71%30.12 "HgN/A
10:50 PM50 °FPassing clouds.26 mph71%30.12 "HgN/A
10:20 PM50 °FPartly cloudy.28 mph71%30.09 "HgN/A
9:50 PM50 °FPassing clouds.25 mph76%30.09 "HgN/A
9:20 PM48 °FPassing clouds.23 mph82%30.09 "HgN/A
8:50 PM50 °FPassing clouds.26 mph76%30.09 "HgN/A
8:20 PM48 °FPassing clouds.24 mph82%30.09 "HgN/A
7:50 PM48 °FPassing clouds.24 mph82%30.07 "HgN/A
7:20 PM48 °FLight rain. Partly cloudy.21 mph82%30.07 "HgN/A
6:50 PM46 °FLight rain. Partly cloudy.22 mph87%30.07 "HgN/A
6:20 PM46 °FLight rain. Partly cloudy.20 mph87%30.07 "HgN/A
5:50 PM46 °FPartly cloudy.22 mph87%30.07 "HgN/A
5:20 PM46 °FPartly cloudy.22 mph93%30.04 "HgN/A
4:50 PM46 °FLight rain. Passing clouds.22 mph93%30.04 "Hg6 mi
4:20 PM46 °FPartly sunny.18 mph93%30.04 "HgN/A
3:50 PM45 °FLight rain. Partly sunny.21 mph100%30.04 "Hg4 mi
3:20 PM45 °FPartly sunny.20 mph93%30.04 "Hg4 mi
2:50 PM45 °FLight rain. Partly sunny.20 mph93%30.04 "Hg2 mi
2:20 PM45 °FLight rain. Partly sunny.20 mph93%30.04 "Hg2 mi
1:50 PM45 °FLight rain. Partly sunny.17 mph93%30.04 "Hg4 mi
1:20 PM43 °FPartly sunny.18 mph100%30.04 "Hg4 mi
12:50 PM43 °FPartly sunny.22 mph93%30.04 "Hg4 mi
12:20 PM43 °FLight rain. Fog.23 mph93%30.04 "Hg2 mi
11:50 AM43 °FLight rain. Broken clouds.23 mph93%30.04 "HgN/A
11:20 AM41 °FLight rain. Broken clouds.24 mph100%30.04 "HgN/A
10:20 AM41 °FDrizzle. Broken clouds.23 mph93%30.01 "Hg4 mi
9:50 AM39 °FDrizzle. Broken clouds.21 mph100%30.01 "Hg4 mi
9:20 AM39 °FLight rain. Broken clouds.23 mph93%30.04 "HgN/A
7:50 AM39 °FLight rain. Partly cloudy.18 mph93%30.01 "Hg5 mi
7:20 AM39 °FLight rain. Partly cloudy.20 mph93%30.01 "Hg5 mi
6:20 AM39 °FLight rain. Passing clouds.20 mph93%30.01 "HgN/A
5:20 AM39 °FLight rain. Partly cloudy.21 mph87%30.01 "HgN/A
4:50 AM39 °FLight rain. Partly cloudy.21 mph87%30.01 "HgN/A
4:20 AM39 °FLight rain. Partly cloudy.21 mph87%30.01 "HgN/A
Weather by CustomWeather, © 2015

See weather overviewHow to use our weather pages